[[{"header":{"parameterUnit":"m.s-1","parameterCategory":1,"la1":30.2991,"la2":30.254,"lo1":-89.0895,"lo2":-89.0444,"dy":0.0017,"dx":0.0017,"nx":28,"ny":28,"refTime":"2026-02-06T09:00:00:Z","depth":0,"parameterNumber":2,"parameterNumberName":"U-component_of_WINDS"},"data":[0,0,0,0,0,0,0,0,0,0,0,0,0,0,0,0,0,0,0,0,0,0,0,0,0,0,0,0,0,0,0,0,0,0,0,0,0,0,0,0,0,0,0,0,0,0,0,0,0,0,0,0,0,0,0,0,0,0,-4.1409,-4.141,0,-4.1477,-4.1477,-4.1478,-4.1332,-4.1328,-4.1323,-4.1318,-4.1391,-4.1397,-4.1403,0,0,0,0,0,0,0,0,0,0,0,0,0,-4.1155,-4.1161,-4.1409,-4.141,-4.141,-4.1476,-4.1477,-4.1478,-4.1333,-4.1327,-4.1322,-4.1316,-4.1389,-4.1396,-4.1404,0,0,0,0,0,0,0,0,0,0,0,0,0,-4.1249,-4.1162,-4.1409,-4.1346,-4.1341,-4.1476,-4.1477,-4.1478,-4.1334,-4.1327,-4.132,-4.1314,-4.1386,-4.1395,-4.1405,-4.1605,0,0,-4.1434,-4.1438,0,0,0,0,0,0,0,0,-4.1243,-4.1258,-4.1354,-4.135,-4.1345,-4.1389,-4.1414,-4.1521,-4.1336,-4.1337,-4.1318,-4.131,-4.1396,-4.1404,-4.1432,-4.1608,-4.1611,-4.1434,-4.144,-4.1444,-4.1447,0,0,0,0,0,0,0,-4.1237,-4.1254,-4.1435,-4.1356,-4.135,-4.1315,-4.132,-4.1434,-4.1405,-4.1336,-4.1326,-4.1336,-4.1392,-4.1424,-4.1433,-4.1612,-4.1434,-4.1443,-4.1448,-4.1452,-4.1955,-4.1962,0,0,0,0,0,0,-4.1238,-4.125,-4.1433,-4.1438,-4.1276,-4.1325,-4.1331,-4.1382,-4.1404,-4.14,-4.1342,-4.1329,-4.1411,-4.1422,-4.1435,-4.167,-4.1444,-4.1453,-4.1458,-4.1947,-4.1956,-4.1965,0,0,0,0,0,0,-4.1233,-4.1256,-4.1431,-4.1341,-4.136,-4.1337,-4.1395,-4.1387,-4.1418,-4.1408,-4.1402,-4.1379,-4.1406,-4.1422,-4.1563,-4.1671,-4.1457,-4.1466,-4.1938,-4.195,-4.196,-4.2144,0,0,0,0,0,0,-4.1227,-4.1255,-4.1331,-4.1344,-4.1366,-4.1558,-4.1402,-4.1393,-4.1435,-4.1418,-4.1441,-4.1438,-4.1401,-4.155,-4.1573,-4.168,-4.1473,-4.1928,-4.1943,-4.1957,-4.2128,-4.216,-4.2187,0,0,0,0,0,-4.1218,-4.138,-4.1335,-4.1358,-4.146,-4.1564,-4.1577,-4.153,-4.1444,-4.152,-4.1513,-4.1438,-4.1655,-4.1566,-4.159,-4.1702,-4.1921,-4.1939,-4.1956,-4.2115,-4.2154,-4.2187,0,0,0,0,0,0,-4.1382,-4.1381,-4.1331,-4.1502,-4.1534,-4.154,-4.1634,-4.1573,-4.1632,-4.1614,-4.1554,-4.1561,-4.1714,-4.1722,-4.1622,-4.1896,-4.1774,-4.1797,-4.1886,-4.1923,-4.1952,-4.1948,-4.1481,0,0,0,0,0,-4.1438,-4.1522,-4.1517,-4.1668,-4.1687,-4.1658,-4.1702,-4.1663,-4.1695,-4.1708,-4.1711,-4.1745,-4.1821,-4.1872,-4.1941,-4.2128,-4.2131,-4.2217,-4.2246,-4.2271,-4.2292,-4.2391,-4.2429,-4.2021,-4.2021,-4.2021,0,0,-4.1554,-4.1564,-4.1621,-4.1702,-4.1722,-4.1811,-4.1671,-4.1771,-4.1837,-4.1723,-4.1857,-4.1861,-4.1894,-4.206,-4.2132,-4.2071,-4.2405,-4.2293,-4.2313,-4.232,-4.2413,-4.2451,-4.2486,-4.2033,-4.2031,-4.2029,0,0,-4.1812,-4.1828,-4.1956,-4.1979,-4.2011,-4.1991,-4.2022,-4.2036,-4.2034,-4.2167,-4.2083,-4.216,-4.2292,-4.232,-4.2351,-4.2619,-4.2552,-4.2643,-4.2799,-4.2896,-4.2928,-4.2957,-4.3052,-4.3088,-4.2664,-4.2664,-4.2664,0,-4.1954,-4.2084,-4.203,-4.2136,-4.2174,-4.2073,-4.2202,-4.2227,-4.2282,-4.231,-4.224,-4.2403,-4.2418,-4.2588,-4.2653,-4.2682,-4.2716,-4.2641,-4.2928,-4.2956,-4.2981,-4.3072,-4.3108,-4.2675,-4.2674,-4.2673,-4.2672,0,-4.2257,-4.2349,-4.2448,-4.2501,-4.255,-4.2668,-4.2631,-4.2687,-4.2644,-4.2631,-4.2767,-4.2782,-4.2853,-4.289,-4.2849,-4.3054,-4.3015,-4.2938,-4.2813,-4.3032,-4.3116,-4.3151,-4.2691,-4.2687,-4.2683,-4.2681,0,0,-4.2621,-4.2642,-4.2679,-4.2702,-4.273,-4.28,-4.2913,-4.298,-4.303,-4.307,-4.3163,-4.3277,-4.3205,-4.3241,-4.3202,-4.3287,-4.3498,-4.3199,-4.3198,-4.3254,-4.3726,-4.3784,-4.3825,-4.3453,-4.346,-4.3465,-4.3723,0,-4.2877,-4.307,-4.3024,-4.3215,-4.3299,-4.3204,-4.3302,-4.3331,-4.3321,-4.3392,-4.3381,-4.3463,-4.3362,-4.3383,-4.3463,-4.3456,-4.3592,-4.3436,-4.354,-4.3545,-4.3536,-4.3869,-4.3932,-4.4174,-4.3755,-4.3761,-4.3765,0,-4.3202,-4.3253,-4.3453,-4.3466,-4.35,-4.3589,-4.3647,-4.3715,-4.3745,-4.3732,-4.3772,-4.3716,-4.3827,-4.3701,-4.3854,-4.375,-4.3789,-4.3792,-4.38,-4.3809,-4.3669,-4.3888,-4.4251,-4.4288,-4.3816,-4.3812,-4.3808,0,-4.3448,-4.3568,-4.3702,-4.3725,-4.3744,-4.3808,-4.3819,-4.3842,-4.3885,-4.3936,-4.3964,-4.4027,-4.4063,-4.4113,-4.4076,-4.3988,-4.4236,-4.4106,-4.4229,-4.423,-4.4286,-4.4283,-4.4662,-4.4311,-4.4311,-4.431,-4.4309,0,-4.3739,-4.3866,-4.3813,-4.3897,-4.4035,-4.398,-4.4119,-4.4118,-4.4139,-4.4221,-4.4142,-4.4221,-4.4166,-4.4241,-4.4212,-4.4343,-4.436,-4.4353,-4.4344,-4.4361,-4.4362,-4.4386,-4.4369,-4.4319,-4.4317,-4.4315,-4.4314,0,-4.4039,-4.4009,-4.4149,-4.4155,-4.4159,-4.4261,-4.4266,-4.4343,-4.4328,-4.4432,-4.4453,-4.4429,-4.4512,-4.448,-4.4568,-4.4549,-4.4717,-4.4686,-4.4707,-4.4699,-4.4824,-4.4813,-4.5232,-4.5284,-4.49,-4.4903,-4.4906,0,-4.4227,-4.4321,-4.4337,-4.4385,-4.4402,-4.4481,-4.4525,-4.4474,-4.4523,-4.4563,-4.4636,-4.4712,-4.477,-4.4907,-4.4898,-4.4965,-4.4935,-4.5077,-4.4944,-4.4958,-4.4937,-4.4932,-4.4942,-4.5104,-4.5108,-4.5112,-4.5115,0,-4.4564,-4.4544,-4.4609,-4.4671,-4.4724,-4.477,-4.4809,-4.4853,-4.4804,-4.4863,-4.4946,-4.4992,-4.5081,-4.5157,-4.5217,-4.5228,-4.5165,-4.5156,-4.5188,-4.5207,-4.5215,-4.5212,-4.478,-4.5147,-4.5144,-4.5142,-4.514,-4.5139,-4.4814,-4.4893,-4.4916,-4.4992,-4.5015,-4.5053,-4.5126,-4.5119,-4.5187,-4.5255,-4.5221,-4.5318,-4.5344,-4.5418,-4.5438,-4.5513,-4.5458,-4.5504,-4.5516,-4.5528,-4.5544,-4.5203,-4.5524,-4.5523,-4.5522,-4.5521,-4.552,0,-4.5147,-4.5157,-4.5227,-4.5283,-4.5342,-4.5275,-4.5314,-4.5369,-4.5455,-4.5484,-4.5543,-4.5639,-4.5712,-4.5708,-4.5776,-4.5837,-4.581,-4.5857,-4.5852,-4.5856,-4.559,-4.5556,-4.5878,-4.5878,-4.5878,-4.5878,-4.5878,-4.5878,-4.5327,-4.5458,-4.5441,-4.5583,-4.5591,-4.5685,-4.5713,-4.5748,-4.5771,-4.5881,-4.5942,-4.5938,-4.5954,-4.6023,-4.6087,-4.6084,-4.6113,-4.6172,-4.6158,-4.591,-4.5875,-4.5841,-4.5808,-4.6178,-4.6179,-4.6417,-4.6419,-4.6421]},{"header":{"parameterUnit":"m.s-1","parameterCategory":1,"la1":30.2991,"la2":30.254,"lo1":-89.0895,"lo2":-89.0444,"dy":0.0017,"dx":0.0017,"nx":28,"ny":28,"refTime":"2026-02-06T09:00:00:Z","depth":0,"parameterNumber":3,"parameterNumberName":"V-component_of_WINDS"},"data":[0,0,0,0,0,0,0,0,0,0,0,0,0,0,0,0,0,0,0,0,0,0,0,0,0,0,0,0,0,0,0,0,0,0,0,0,0,0,0,0,0,0,0,0,0,0,0,0,0,0,0,0,0,0,0,0,0,0,-2.467,-2.4671,0,-2.4744,-2.4744,-2.4745,-2.473,-2.4728,-2.4727,-2.4726,-2.4801,-2.4804,-2.4808,0,0,0,0,0,0,0,0,0,0,0,0,0,-2.4514,-2.4517,-2.467,-2.4671,-2.4672,-2.4743,-2.4744,-2.4745,-2.473,-2.4728,-2.4727,-2.4725,-2.48,-2.4804,-2.4808,0,0,0,0,0,0,0,0,0,0,0,0,0,-2.4584,-2.4518,-2.467,-2.4673,-2.4674,-2.4743,-2.4744,-2.4746,-2.473,-2.4728,-2.4726,-2.4724,-2.4799,-2.4804,-2.4809,-2.488,0,0,-2.4824,-2.4826,0,0,0,0,0,0,0,0,-2.458,-2.459,-2.4671,-2.4672,-2.4674,-2.4725,-2.4717,-2.4791,-2.4731,-2.4709,-2.4726,-2.4723,-2.4778,-2.4784,-2.4803,-2.4883,-2.4887,-2.4824,-2.4827,-2.4829,-2.4831,0,0,0,0,0,0,0,-2.4575,-2.4587,-2.4699,-2.4672,-2.4674,-2.467,-2.4677,-2.4731,-2.4754,-2.471,-2.471,-2.4718,-2.4778,-2.4798,-2.4804,-2.4888,-2.4824,-2.4828,-2.4831,-2.4833,-2.5029,-2.5031,0,0,0,0,0,0,-2.457,-2.4583,-2.4697,-2.4701,-2.4621,-2.4674,-2.4683,-2.4711,-2.4753,-2.4758,-2.472,-2.4717,-2.479,-2.4798,-2.4807,-2.4892,-2.4829,-2.4834,-2.4837,-2.5027,-2.5029,-2.5032,0,0,0,0,0,0,-2.4566,-2.458,-2.4694,-2.4642,-2.4656,-2.4679,-2.4711,-2.4713,-2.4733,-2.476,-2.4764,-2.4736,-2.4789,-2.48,-2.4861,-2.4894,-2.4836,-2.484,-2.5024,-2.5028,-2.5031,-2.5064,0,0,0,0,0,0,-2.4562,-2.4579,-2.4607,-2.4642,-2.4659,-2.4748,-2.4713,-2.4716,-2.4742,-2.4739,-2.4777,-2.4781,-2.4788,-2.4854,-2.4866,-2.49,-2.4844,-2.5021,-2.5026,-2.503,-2.506,-2.5068,-2.5075,0,0,0,0,0,-2.4556,-2.4613,-2.4608,-2.4622,-2.4694,-2.475,-2.4759,-2.4766,-2.4745,-2.4772,-2.4789,-2.478,-2.4889,-2.4861,-2.4874,-2.491,-2.5019,-2.5024,-2.5029,-2.5056,-2.5066,-2.5074,0,0,0,0,0,0,-2.4581,-2.4618,-2.4613,-2.4683,-2.4713,-2.4747,-2.4782,-2.4776,-2.4813,-2.4809,-2.4817,-2.4825,-2.4888,-2.4905,-2.4873,-2.498,-2.4951,-2.4959,-2.4967,-2.4976,-2.4984,-2.4978,-2.4848,0,0,0,0,0,-2.4595,-2.4637,-2.4667,-2.4726,-2.4742,-2.4759,-2.4784,-2.4787,-2.4818,-2.4831,-2.4853,-2.4883,-2.4924,-2.4951,-2.4991,-2.5062,-2.5069,-2.5093,-2.51,-2.5106,-2.5113,-2.5151,-2.5161,-2.5048,-2.5048,-2.5048,0,0,-2.4624,-2.4649,-2.4676,-2.4732,-2.4756,-2.4798,-2.477,-2.4817,-2.4849,-2.4838,-2.4897,-2.4914,-2.4949,-2.5015,-2.5045,-2.5031,-2.5146,-2.5113,-2.5117,-2.5121,-2.5157,-2.5168,-2.5177,-2.5052,-2.5051,-2.5051,0,0,-2.4698,-2.4722,-2.4773,-2.4797,-2.4833,-2.4844,-2.4856,-2.489,-2.4901,-2.496,-2.4952,-2.499,-2.5061,-2.5085,-2.5107,-2.5188,-2.5181,-2.5201,-2.524,-2.5276,-2.5285,-2.5293,-2.5321,-2.5331,-2.5208,-2.5208,-2.5208,0,-2.473,-2.4794,-2.48,-2.4848,-2.4872,-2.4863,-2.4915,-2.4937,-2.4984,-2.5001,-2.4985,-2.5072,-2.5095,-2.5166,-2.5186,-2.5204,-2.5218,-2.5197,-2.5283,-2.5291,-2.5299,-2.5326,-2.5336,-2.521,-2.521,-2.521,-2.5209,0,-2.483,-2.4875,-2.4912,-2.4957,-2.4985,-2.5035,-2.5047,-2.5075,-2.5075,-2.5088,-2.5147,-2.5174,-2.5218,-2.5235,-2.5236,-2.5306,-2.5296,-2.5282,-2.5252,-2.5312,-2.5337,-2.5347,-2.5213,-2.5212,-2.5212,-2.5211,0,0,-2.4924,-2.497,-2.4983,-2.5003,-2.5041,-2.5075,-2.5123,-2.5166,-2.5189,-2.5221,-2.5261,-2.532,-2.5306,-2.5331,-2.5334,-2.5366,-2.5427,-2.5348,-2.5349,-2.5361,-2.5505,-2.5515,-2.5527,-2.5422,-2.5424,-2.5426,-2.5502,0,-2.5001,-2.5086,-2.5091,-2.5168,-2.5208,-2.52,-2.5241,-2.5269,-2.5281,-2.5317,-2.5331,-2.5372,-2.5352,-2.5366,-2.5397,-2.5413,-2.5456,-2.5408,-2.5459,-2.5461,-2.545,-2.5541,-2.5552,-2.5623,-2.5512,-2.5513,-2.5515,0,-2.5103,-2.5137,-2.5217,-2.5248,-2.5265,-2.5302,-2.5341,-2.5375,-2.5406,-2.5412,-2.5439,-2.5437,-2.5485,-2.5454,-2.552,-2.5487,-2.5508,-2.5519,-2.5522,-2.5527,-2.5491,-2.5547,-2.5645,-2.5656,-2.5531,-2.5529,-2.5528,0,-2.5161,-2.5228,-2.5284,-2.5301,-2.5338,-2.5364,-2.5381,-2.5409,-2.5434,-2.5467,-2.5483,-2.5522,-2.5543,-2.5573,-2.5581,-2.5558,-2.5647,-2.5616,-2.5653,-2.5653,-2.5672,-2.5671,-2.5774,-2.5687,-2.5686,-2.5686,-2.5686,0,-2.5247,-2.5296,-2.531,-2.5345,-2.5399,-2.5405,-2.5459,-2.5474,-2.5498,-2.5535,-2.553,-2.5565,-2.5574,-2.561,-2.5616,-2.5669,-2.5679,-2.5685,-2.5687,-2.5686,-2.5685,-2.5699,-2.5695,-2.5689,-2.5688,-2.5688,-2.5687,0,-2.5322,-2.5334,-2.5394,-2.5424,-2.5432,-2.5471,-2.5496,-2.5529,-2.554,-2.5586,-2.5598,-2.5615,-2.5657,-2.5668,-2.5719,-2.5723,-2.5785,-2.5782,-2.5775,-2.5775,-2.581,-2.5807,-2.5927,-2.5942,-2.5845,-2.5846,-2.5846,0,-2.5375,-2.5413,-2.5446,-2.547,-2.5488,-2.5527,-2.5551,-2.5558,-2.5584,-2.562,-2.5648,-2.5689,-2.5722,-2.5789,-2.5806,-2.5844,-2.5842,-2.5881,-2.5847,-2.5845,-2.5841,-2.5839,-2.5842,-2.5887,-2.5889,-2.5889,-2.589,0,-2.5469,-2.5472,-2.5508,-2.5545,-2.5575,-2.5604,-2.5633,-2.5653,-2.5663,-2.5692,-2.5735,-2.576,-2.5811,-2.5851,-2.5889,-2.5906,-2.59,-2.59,-2.5911,-2.591,-2.5904,-2.5907,-2.5792,-2.5898,-2.5897,-2.5896,-2.5896,-2.5896,-2.5534,-2.5566,-2.5594,-2.5634,-2.5656,-2.5682,-2.5714,-2.5728,-2.5764,-2.5805,-2.5807,-2.5852,-2.588,-2.593,-2.5949,-2.5984,-2.5973,-2.5988,-2.5992,-2.5995,-2.5998,-2.5899,-2.5992,-2.5991,-2.5991,-2.5991,-2.5991,0,-2.5627,-2.5644,-2.568,-2.5719,-2.575,-2.5741,-2.5771,-2.5797,-2.5838,-2.5864,-2.5896,-2.5944,-2.5983,-2.6002,-2.6041,-2.6065,-2.6063,-2.6075,-2.6073,-2.6077,-2.6007,-2.5994,-2.6076,-2.6076,-2.6076,-2.6076,-2.6076,-2.6076,-2.5678,-2.5732,-2.5738,-2.5802,-2.5819,-2.5863,-2.5881,-2.5905,-2.5926,-2.5979,-2.6011,-2.6024,-2.6047,-2.6086,-2.6121,-2.6126,-2.614,-2.6153,-2.6156,-2.609,-2.6082,-2.6074,-2.6061,-2.6156,-2.6156,-2.6223,-2.6224,-2.6224]}]]